TimeCST,TemperatureF,Dew PointF,Humidity,Sea Level PressureIn,VisibilityMPH,Wind Direction,Wind SpeedMPH,Gust SpeedMPH,PrecipitationIn,Events,Conditions,WindDirDegrees,DateUTC
12:04 AM,35.6,33.8,93,29.92,6.0,NNW,4.6,-,0.01,Rain,Light Rain,330,2013-02-13 06:04:00
12:17 AM,35.6,33.8,93,29.92,6.0,NNW,5.8,-,0.02,Rain,Light Rain,340,2013-02-13 06:17:00
12:53 AM,35.1,33.1,92,29.92,7.0,North,6.9,-,0.03,Rain,Light Rain,350,2013-02-13 06:53:00
1:48 AM,33.8,33.8,100,29.91,7.0,Calm,Calm,-,0.03,Rain,Light Rain,0,2013-02-13 07:48:00
1:53 AM,34.0,34.0,100,29.92,7.0,North,3.5,-,0.03,Rain,Light Rain,10,2013-02-13 07:53:00
2:10 AM,33.8,33.8,100,29.91,7.0,Calm,Calm,-,0.00,Rain,Light Rain,0,2013-02-13 08:10:00
2:32 AM,33.8,33.8,100,29.90,7.0,Calm,Calm,-,0.01,Rain,Light Rain,0,2013-02-13 08:32:00
2:53 AM,34.0,34.0,100,29.91,5.0,Calm,Calm,-,0.01,Rain,Light Rain,0,2013-02-13 08:53:00
3:03 AM,33.8,33.8,100,29.89,5.0,Calm,Calm,-,0.01,Rain,Light Rain,0,2013-02-13 09:03:00
3:31 AM,33.8,33.8,100,29.89,4.0,Calm,Calm,-,0.01,Snow,Light Snow,0,2013-02-13 09:31:00
3:42 AM,33.8,33.8,100,29.89,5.0,Calm,Calm,-,0.01,Rain,Light Freezing Rain,0,2013-02-13 09:42:00
3:53 AM,33.1,33.1,100,29.91,5.0,Calm,Calm,-,0.01,Rain,Light Freezing Rain,0,2013-02-13 09:53:00
4:04 AM,33.8,33.8,100,29.90,4.0,NW,3.5,-,0.01,Snow,Light Snow,320,2013-02-13 10:04:00
4:53 AM,33.1,33.1,100,29.93,3.0,NW,4.6,-,0.02,Snow,Light Snow,310,2013-02-13 10:53:00
5:16 AM,33.8,33.8,100,29.92,5.0,Variable,3.5,-,0.00,Rain,Light Freezing Rain,0,2013-02-13 11:16:00
5:53 AM,34.0,34.0,100,29.94,6.0,Calm,Calm,-,0.00,Rain,Light Freezing Rain,0,2013-02-13 11:53:00
6:12 AM,33.8,33.8,100,29.93,7.0,NW,3.5,-,0.00,,Overcast,320,2013-02-13 12:12:00
6:37 AM,33.8,33.8,100,29.93,7.0,Calm,Calm,-,0.00,,Overcast,0,2013-02-13 12:37:00
6:53 AM,34.0,34.0,100,29.95,8.0,WNW,3.5,-,0.00,,Overcast,290,2013-02-13 12:53:00
7:21 AM,35.6,35.6,100,29.95,9.0,WNW,3.5,-,N/A,,Overcast,300,2013-02-13 13:21:00
7:49 AM,35.6,35.6,100,29.97,7.0,Calm,Calm,-,N/A,,Overcast,0,2013-02-13 13:49:00
7:53 AM,35.1,35.1,100,29.98,7.0,WNW,4.6,-,N/A,,Overcast,290,2013-02-13 13:53:00
8:03 AM,35.6,35.6,100,29.97,7.0,Variable,4.6,-,0.00,Rain,Light Rain,0,2013-02-13 14:03:00
8:53 AM,35.1,35.1,100,30.00,7.0,Variable,3.5,-,0.00,,Overcast,0,2013-02-13 14:53:00
9:18 AM,35.6,35.6,100,29.99,4.0,Variable,3.5,-,N/A,,Overcast,0,2013-02-13 15:18:00
9:53 AM,36.0,36.0,100,30.00,6.0,West,4.6,-,N/A,,Overcast,270,2013-02-13 15:53:00
10:30 AM,39.2,39.2,100,29.98,8.0,Variable,4.6,-,N/A,,Mostly Cloudy,0,2013-02-13 16:30:00
10:53 AM,42.1,41.0,96,30.00,9.0,Variable,5.8,-,N/A,,Mostly Cloudy,0,2013-02-13 16:53:00
11:17 AM,41.0,37.4,87,29.97,9.0,West,4.6,-,N/A,,Scattered Clouds,260,2013-02-13 17:17:00
11:53 AM,46.0,36.0,68,29.97,9.0,Variable,6.9,-,N/A,,Partly Cloudy,0,2013-02-13 17:53:00
12:53 PM,48.9,32.0,52,29.94,10.0,WSW,10.4,-,N/A,,Partly Cloudy,240,2013-02-13 18:53:00
1:53 PM,52.0,30.9,45,29.93,10.0,Variable,4.6,-,N/A,,Scattered Clouds,0,2013-02-13 19:53:00
2:53 PM,50.0,28.9,44,29.91,10.0,WNW,4.6,18.4,N/A,,Clear,290,2013-02-13 20:53:00
3:53 PM,51.1,27.0,39,29.91,10.0,Variable,6.9,16.1,N/A,,Clear,0,2013-02-13 21:53:00
4:53 PM,50.0,28.0,43,29.92,10.0,WNW,5.8,-,N/A,,Clear,300,2013-02-13 22:53:00
5:53 PM,46.9,28.9,50,29.92,10.0,Calm,Calm,-,N/A,,Clear,0,2013-02-13 23:53:00
6:53 PM,46.0,28.9,51,29.93,10.0,Calm,Calm,-,N/A,,Clear,0,2013-02-14 00:53:00
7:53 PM,44.1,28.9,55,29.94,10.0,WSW,3.5,-,N/A,,Clear,240,2013-02-14 01:53:00
8:53 PM,42.1,28.9,60,29.94,10.0,SW,6.9,-,N/A,,Clear,220,2013-02-14 02:53:00
9:53 PM,42.1,30.0,62,29.95,10.0,WSW,3.5,-,N/A,,Clear,240,2013-02-14 03:53:00
10:53 PM,39.9,30.9,70,29.95,10.0,SSW,4.6,-,N/A,,Clear,210,2013-02-14 04:53:00
11:53 PM,37.9,30.9,76,29.95,10.0,SSW,4.6,-,N/A,,Clear,200,2013-02-14 05:53:00